QPF
0.00 0.00 0.00 0.00 0.00 0.00 0.00 0.00 0.00 0.00 0.00 0.00 0.00 0.00 0.00 0.00 0.00 0.00 0.00 0.00 0.00 0.00 0.00 0.00 0.00 0.00 0.00 0.00 0.00 0.00 0.00 0.00
0.00 0.00 0.00 0.00 0.00 0.00 0.00 0.00 0.00 0.00 0.00 0.00 0.00 0.00 0.00 0.00 0.00 0.00 0.00 0.00 0.00 0.00 0.00 0.00 0.00 0.00 0.00 0.00 0.00 0.00 0.00 0.00
0.00 0.00 0.00 0.00 0.00 0.00 0.00 0.00 0.00 0.00 0.00 0.00 0.00 0.00 0.00 0.00 0.00 0.00 0.00 0.00 0.00 0.00 0.00 0.00 0.00 0.00 0.00 0.00 0.00 0.00 0.00 0.00
0.00 0.00 0.00 0.00 0.00 0.00 0.00 0.00 0.00 0.00 0.00 0.00 0.00 0.00 0.00 0.00 0.00 0.00 0.00 0.00 0.00 0.00 0.00 0.00 0.00 0.00 0.00 0.00 0.00 0.00 0.00 0.00
0.00 0.00 0.00 0.00 0.00 0.00 0.00 0.00 0.00 0.00 0.00 0.00 0.00 0.00 0.00 0.00 0.00 0.00 0.00 0.00 0.00 0.00 0.00 0.00 0.00 0.00 0.00 0.00 0.00 0.00 0.00 0.00
0.00 0.00 0.00 0.00 0.00 0.00 0.00 0.00 0.00 0.00 0.00 0.00 0.00 0.00 0.00 0.00 0.00 0.00 0.00 0.00 0.00 0.00 0.00 0.00 0.00 0.00 0.00 0.00 0.00 0.00 0.00 0.00
0.00 0.00 0.00 0.00 0.00 0.00 0.00 0.00 0.00 0.00 0.00 0.00 0.00 0.00 0.00 0.00 0.00 0.00 0.00 0.00 0.00 0.00 0.00 0.00 0.00 0.00 0.00 0.00 0.00 0.00 0.00 0.00
0.00 0.00 0.00 0.00 0.00 0.00 0.00 0.00 0.00 0.00 0.00 0.00 0.00 0.00 0.00 0.00 0.00 0.00 0.00 0.00 0.00 0.00 0.00 0.00 0.00 0.00 0.00 0.00 0.00 0.00 0.00 0.00
0.01 0.02 0.01 0.00 0.00 0.00 0.00 0.00 0.00 0.00 0.00 0.00 0.00 0.00 0.00 0.00 0.00 0.00 0.00 0.00 0.00 0.00 0.00 0.00 0.00 0.00 0.00 0.00 0.00 0.00 0.00 0.00
0.02 0.07 0.02 0.00 0.00 0.01 0.01 0.00 0.00 0.00 0.00 0.00 0.00 0.00 0.00 0.00 0.00 0.00 0.00 0.00 0.00 0.00 0.00 0.00 0.00 0.00 0.00 0.00 0.00 0.00 0.00 0.00
0.03 0.06 0.03 0.01 0.02 0.03 0.02 0.00 0.00 0.00 0.00 0.00 0.00 0.00 0.00 0.00 0.00 0.00 0.00 0.00 0.00 0.00 0.00 0.00 0.00 0.00 0.00 0.00 0.00 0.00 0.00 0.00
0.03 0.04 0.05 0.04 0.03 0.01 0.01 0.01 0.00 0.00 0.00 0.00 0.00 0.01 0.01 0.00 0.00 0.00 0.00 0.00 0.00 0.00 0.00 0.00 0.00 0.00 0.00 0.00 0.00 0.00 0.00 0.00
0.01 0.01 0.05 0.03 0.00 0.01 0.04 0.03 0.01 0.00 0.02 0.03 0.03 0.03 0.04 0.03 0.00 0.00 0.00 0.00 0.00 0.00 0.00 0.00 0.00 0.00 0.00 0.00 0.00 0.00 0.00 0.00
0.00 0.02 0.06 0.05 0.03 0.04 0.02 0.01 0.01 0.01 0.05 0.10 0.05 0.03 0.03 0.01 0.00 0.00 0.00 0.00 0.00 0.00 0.00 0.00 0.00 0.00 0.00 0.00 0.00 0.00 0.00 0.00
0.00 0.00 0.05 0.05 0.02 0.03 0.04 0.09 0.03 0.04 0.05 0.09 0.07 0.05 0.02 0.01 0.00 0.00 0.00 0.00 0.00 0.00 0.00 0.00 0.00 0.00 0.00 0.00 0.00 0.00 0.00 0.00
0.00 0.00 0.01 0.03 0.03 0.05 0.07 0.11 0.09 0.07 0.07 0.04 0.02 0.01 0.00 0.00 0.00 0.00 0.00 0.00 0.00 0.00 0.00 0.00 0.00 0.00 0.00 0.00 0.00 0.00 0.00 0.00
0.00 0.00 0.00 0.01 0.02 0.04 0.06 0.05 0.05 0.05 0.02 0.00 0.00 0.00 0.00 0.00 0.00 0.00 0.00 0.00 0.00 0.00 0.00 0.00 0.00 0.00 0.00 0.00 0.00 0.00 0.00 0.00
0.00 0.00 0.00 0.00 0.03 0.09 0.07 0.05 0.06 0.04 0.02 0.00 0.00 0.00 0.00 0.00 0.00 0.00 0.00 0.00 0.00 0.00 0.00 0.00 0.00 0.00 0.00 0.00 0.00 0.00 0.00 0.00
0.00 0.00 0.00 0.00 0.01 0.04 0.09 0.08 0.07 0.05 0.03 0.01 0.00 0.00 0.00 0.00 0.00 0.00 0.00 0.00 0.00 0.00 0.00 0.00 0.00 0.00 0.00 0.00 0.00 0.00 0.00 0.00
0.00 0.00 0.00 0.00 0.00 0.03 0.04 0.05 0.05 0.05 0.02 0.00 0.00 0.00 0.00 0.00 0.00 0.00 0.00 0.00 0.00 0.00 0.00 0.00 0.00 0.00 0.00 0.00 0.00 0.00 0.00 0.00
MSLP
1011.41 1012.53 1013.08 1013.44 1013.58 1013.82 1014.20 1014.65 1015.06 1015.51 1015.96 1016.31 1016.71 1017.09 1017.33 1017.57 1017.70 1017.93 1018.26 1018.48 1018.64 1018.60 1018.74 1018.83 1018.82 1018.92 1019.04 1019.11 1018.92 1018.55 1017.31 1017.39
1011.42 1012.09 1012.74 1013.31 1013.83 1014.26 1014.46 1014.82 1015.23 1015.68 1016.09 1016.59 1016.93 1017.30 1017.70 1017.93 1018.08 1018.22 1018.35 1018.61 1018.85 1019.01 1018.97 1019.07 1019.14 1019.15 1019.23 1019.25 1018.97 1018.39 1017.50 1017.42
1011.25 1011.77 1012.35 1012.77 1013.32 1014.14 1014.79 1015.09 1015.49 1015.90 1016.16 1016.66 1017.11 1016.90 1017.50 1017.94 1017.90 1018.43 1018.64 1018.80 1018.98 1019.20 1019.35 1019.38 1019.42 1019.57 1019.56 1019.30 1018.77 1017.78 1017.85 1017.83
1011.33 1011.61 1011.94 1012.32 1012.57 1013.54 1014.22 1014.71 1015.23 1015.53 1015.90 1016.46 1016.29 1016.41 1016.76 1016.86 1018.04 1018.70 1018.82 1018.96 1019.24 1019.20 1019.35 1019.34 1019.20 1018.35 1019.05 1019.37 1018.29 1018.40 1018.08 1018.19
1010.74 1011.80 1011.93 1012.06 1012.12 1013.42 1013.73 1014.23 1014.88 1015.29 1015.49 1015.89 1015.69 1016.54 1016.97 1017.11 1017.69 1018.06 1018.42 1018.63 1018.26 1018.77 1018.83 1018.30 1018.59 1018.47 1018.67 1018.84 1019.02 1018.63 1018.43 1019.28
1010.40 1011.29 1011.82 1011.92 1012.27 1013.52 1013.82 1014.31 1014.64 1015.13 1015.46 1015.55 1015.58 1015.97 1016.47 1016.40 1016.79 1017.25 1017.75 1017.90 1018.26 1018.23 1018.41 1018.84 1019.08 1019.32 1019.39 1019.49 1019.35 1018.96 1018.94 1019.35
1009.87 1010.79 1011.51 1012.09 1012.41 1012.79 1013.38 1013.82 1014.14 1014.64 1014.99 1015.21 1015.14 1015.23 1015.90 1016.17 1016.52 1016.80 1017.28 1017.91 1018.09 1018.35 1018.76 1018.87 1019.16 1019.43 1019.68 1019.78 1019.94 1019.74 1019.58 1019.59
1009.02 1010.10 1010.97 1011.63 1011.58 1012.14 1012.51 1013.30 1013.90 1013.93 1014.51 1014.58 1015.05 1015.03 1015.80 1016.10 1016.45 1016.66 1017.10 1017.53 1018.04 1018.34 1018.61 1018.94 1019.11 1019.57 1019.94 1020.10 1020.08 1019.96 1020.10 1020.65
1008.75 1009.93 1010.56 1011.20 1011.00 1011.50 1011.78 1012.11 1012.98 1013.36 1013.87 1014.39 1014.92 1015.04 1015.63 1015.99 1016.47 1016.88 1017.29 1017.97 1018.21 1018.51 1018.91 1019.15 1019.29 1019.49 1019.97 1020.17 1020.41 1020.66 1020.94 1020.87
1008.36 1009.38 1010.37 1010.86 1010.89 1011.46 1011.84 1012.21 1012.88 1013.14 1013.89 1014.26 1014.78 1015.13 1015.65 1016.04 1016.40 1016.84 1017.50 1017.92 1018.20 1018.41 1018.57 1018.60 1018.76 1018.92 1019.52 1019.75 1020.30 1020.92 1021.37 1021.41
1007.50 1008.90 1009.77 1010.43 1010.77 1011.24 1011.79 1012.47 1013.08 1013.60 1014.04 1014.28 1014.52 1015.22 1015.66 1015.90 1016.30 1016.99 1017.85 1017.87 1018.00 1018.17 1018.45 1018.69 1018.79 1019.03 1019.37 1019.85 1020.10 1020.50 1020.85 1021.18
1006.78 1008.35 1009.55 1010.05 1010.87 1011.61 1012.01 1012.49 1012.95 1013.66 1014.15 1014.47 1014.89 1015.38 1015.75 1015.92 1016.38 1017.07 1017.45 1017.73 1018.04 1018.14 1018.45 1018.62 1018.72 1019.37 1019.81 1020.26 1020.52 1020.72 1021.13 1021.40
1006.82 1007.97 1008.87 1009.67 1010.40 1011.40 1012.48 1012.84 1013.70 1014.36 1014.81 1014.93 1015.15 1015.48 1015.85 1016.13 1016.34 1017.16 1017.34 1017.65 1018.02 1018.56 1018.81 1019.03 1019.04 1019.68 1019.74 1020.30 1020.97 1021.31 1021.22 1021.40
1006.62 1007.52 1008.48 1009.38 1010.01 1010.66 1011.44 1012.37 1013.45 1014.14 1014.78 1015.31 1015.75 1015.83 1016.14 1016.18 1015.98 1016.89 1017.24 1017.61 1018.21 1018.61 1018.82 1018.87 1019.19 1019.51 1019.17 1019.50 1020.48 1021.40 1021.71 1021.89
1006.57 1007.39 1008.21 1008.98 1009.93 1010.70 1011.66 1012.59 1013.76 1014.44 1015.05 1015.72 1016.22 1016.45 1016.55 1016.82 1016.69 1017.18 1017.58 1017.92 1018.38 1018.83 1019.10 1019.16 1019.38 1019.46 1019.33 1018.96 1019.21 1018.97 1020.98 1022.05
1006.50 1007.47 1008.22 1008.93 1009.82 1010.77 1011.75 1012.32 1013.48 1014.17 1015.09 1015.99 1016.70 1017.17 1017.58 1017.90 1018.11 1018.32 1018.67 1019.15 1019.03 1019.16 1019.49 1019.71 1019.77 1019.86 1020.03 1020.14 1020.00 1018.97 1019.82 1021.30
1006.95 1007.62 1008.67 1009.44 1010.11 1010.70 1011.65 1012.81 1013.78 1014.66 1015.52 1016.56 1017.09 1018.11 1018.88 1019.28 1019.61 1019.88 1019.85 1020.38 1019.90 1019.96 1020.16 1019.97 1020.44 1020.38 1020.35 1020.37 1020.29 1020.33 1020.12 1020.06
1008.34 1008.85 1009.51 1010.08 1010.57 1011.23 1012.08 1012.85 1013.97 1014.97 1015.94 1016.58 1017.27 1018.02 1018.42 1019.77 1020.55 1020.07 1020.15 1021.02 1020.92 1020.33 1020.46 1020.24 1020.82 1021.17 1021.09 1020.99 1020.82 1020.73 1020.57 1020.94
1009.03 1009.48 1010.17 1010.85 1011.38 1011.88 1012.37 1013.04 1013.86 1014.83 1015.97 1016.76 1017.50 1017.77 1017.13 1017.95 1018.89 1018.49 1019.12 1019.81 1021.09 1021.34 1021.75 1021.13 1021.31 1021.61 1021.73 1021.97 1022.07 1021.66 1021.53 1021.35
1009.20 1009.56 1010.07 1010.53 1011.02 1011.77 1012.70 1013.24 1013.84 1014.67 1014.86 1015.68 1017.30 1016.53 1018.07 1017.66 1019.73 1020.01 1019.75 1020.36 1020.65 1020.76 1020.87 1021.15 1021.67 1022.11 1022.18 1022.23 1022.41 1022.31 1021.76 1021.55
Thickness
5760 5749 5744 5741 5740 5737 5733 5728 5724 5719 5714 5710 5707 5704 5702 5700 5698 5696 5693 5692 5692 5693 5693 5693 5694 5693 5691 5690 5692 5694 5701 5700
5757 5749 5743 5738 5734 5730 5728 5724 5720 5714 5710 5705 5703 5700 5696 5693 5693 5691 5691 5688 5686 5686 5687 5687 5687 5687 5687 5686 5687 5691 5697 5698
5755 5749 5743 5738 5733 5726 5721 5718 5714 5709 5706 5702 5698 5697 5692 5689 5689 5686 5684 5683 5683 5682 5681 5681 5681 5681 5681 5683 5687 5692 5692 5693
5749 5746 5742 5737 5734 5726 5720 5716 5711 5707 5702 5698 5697 5696 5693 5692 5684 5680 5680 5679 5678 5680 5679 5678 5679 5683 5678 5677 5684 5684 5687 5686
5748 5739 5736 5734 5733 5723 5720 5715 5709 5705 5702 5698 5698 5690 5686 5686 5681 5679 5677 5677 5680 5677 5678 5680 5677 5677 5676 5675 5674 5676 5678 5672
5745 5737 5733 5730 5726 5717 5715 5710 5707 5702 5698 5697 5695 5691 5686 5686 5684 5679 5676 5675 5673 5674 5673 5671 5668 5666 5666 5665 5666 5669 5668 5666
5742 5735 5729 5724 5720 5717 5713 5709 5706 5702 5698 5695 5694 5693 5687 5683 5680 5678 5673 5668 5668 5666 5663 5662 5661 5659 5657 5657 5656 5657 5658 5657
5743 5736 5729 5722 5722 5718 5714 5706 5701 5701 5697 5695 5690 5689 5682 5679 5677 5674 5670 5666 5662 5660 5658 5656 5654 5651 5649 5647 5647 5648 5647 5642
5736 5727 5724 5719 5721 5717 5713 5710 5703 5699 5695 5691 5685 5683 5678 5674 5669 5666 5663 5658 5657 5654 5650 5648 5647 5645 5641 5639 5638 5636 5634 5634
5731 5724 5718 5714 5715 5710 5704 5700 5695 5694 5689 5685 5680 5675 5671 5667 5663 5660 5656 5652 5650 5648 5647 5648 5647 5645 5639 5636 5631 5627 5623 5623
5732 5722 5715 5709 5708 5703 5698 5690 5686 5683 5681 5678 5675 5667 5663 5661 5656 5651 5644 5643 5643 5642 5640 5638 5637 5635 5633 5627 5624 5621 5618 5615
5732 5720 5709 5706 5698 5692 5689 5686 5682 5676 5672 5669 5664 5659 5656 5653 5648 5642 5638 5635 5634 5633 5630 5629 5628 5622 5617 5613 5611 5609 5605 5602
5724 5715 5708 5700 5693 5684 5674 5673 5667 5662 5658 5657 5653 5650 5646 5640 5639 5632 5630 5627 5624 5619 5616 5614 5614 5609 5607 5603 5597 5593 5593 5590
5719 5711 5703 5695 5690 5685 5679 5672 5662 5656 5651 5645 5638 5637 5632 5630 5631 5624 5620 5617 5612 5608 5606 5604 5601 5599 5599 5596 5586 5581 5577 5575
5711 5704 5697 5691 5684 5679 5669 5661 5649 5644 5639 5631 5624 5620 5620 5616 5614 5607 5604 5601 5598 5595 5592 5589 5585 5586 5586 5589 5585 5588 5571 5560
5705 5696 5689 5682 5675 5669 5661 5656 5644 5638 5629 5619 5612 5606 5600 5596 5594 5589 5585 5578 5579 5577 5573 5570 5568 5564 5564 5564 5563 5574 5564 5550
5690 5685 5676 5670 5663 5659 5650 5640 5630 5623 5614 5605 5600 5591 5581 5575 5570 5567 5567 5560 5560 5556 5552 5553 5547 5549 5548 5546 5545 5544 5545 5546
5668 5664 5659 5654 5649 5642 5633 5628 5618 5609 5600 5595 5590 5582 5576 5562 5552 5554 5552 5539 5541 5540 5532 5536 5531 5525 5526 5525 5526 5527 5529 5525
5650 5646 5641 5636 5631 5627 5621 5613 5607 5599 5589 5581 5571 5568 5570 5558 5545 5543 5543 5535 5521 5516 5511 5515 5513 5507 5505 5503 5505 5510 5510 5511
5639 5635 5630 5626 5623 5616 5607 5602 5595 5588 5586 5578 5563 5549 5548 5550 5530 5526 5528 5520 5515 5513 5511 5508 5501 5498 5497 5497 5494 5492 5497 5497